Location: Bakhuizen
(52.8696°N, 5.4575°E)
Time: 04:09:22
(UTC+00:00)

Cosmos 1733 Rocket - Pass Details

Date: 11 May 2021
Orbit: 603 x 628 km, 82.5° (Epoch: 14 June)

Event Time Altitude Azimuth Distance (km) Brightness Sun altitude
Rises 21:19:08 0° 355° (N) 2,877 7.7 -13.2°
Reaches altitude 10° 21:21:34 10° 6° (N) 1,966 6.4 -13.4°
Maximum altitude 21:25:27 31° 69° (ENE) 1,064 4.2 -13.7°
Enters shadow 21:27:50 19° 119° (ESE) 1,464 4.5 -13.9°
